EN

Hourly Weather Ambrolauris

Today, 27 January, Wednesday

Time Temperature Precipitation Wind Pressure Humidity
00:00 +4°C° 0 mm 2 mps 692 mmHg 53%
01:00 +4°C° 0 mm 2 mps 692 mmHg 53%
02:00 +3°C° 0 mm 3 mps 691 mmHg 53%
03:00 +3°C° 0 mm 3 mps 691 mmHg 53%
04:00 +3°C° 0 mm 3 mps 691 mmHg 52%
05:00 +4°C° 0 mm 3 mps 690 mmHg 52%
06:00 +4°C° 0 mm 3 mps 690 mmHg 51%
07:00 +4°C° 0 mm 3 mps 690 mmHg 50%
08:00 +5°C° 0 mm 3 mps 690 mmHg 49%
09:00 +7°C° 0 mm 3 mps 689 mmHg 48%
10:00 +8°C° 0 mm 3 mps 689 mmHg 48%
11:00 +10°C° 0 mm 3 mps 689 mmHg 49%
12:00 +11°C° 0 mm 3 mps 688 mmHg 49%
13:00 +11°C° 0 mm 3 mps 688 mmHg 50%
14:00 +11°C° 0 mm 3 mps 688 mmHg 52%
15:00 +11°C° 0 mm 3 mps 687 mmHg 53%
16:00 +10°C° 0 mm 2 mps 687 mmHg 54%
17:00 +8°C° 0 mm 2 mps 687 mmHg 56%
18:00 +7°C° 0 mm 2 mps 687 mmHg 57%
19:00 +5°C° 0 mm 3 mps 687 mmHg 56%
20:00 +5°C° 0 mm 3 mps 687 mmHg 55%
21:00 +4°C° 0 mm 3 mps 686 mmHg 54%
22:00 +4°C° 0 mm 3 mps 686 mmHg 52%
23:00 +4°C° 0 mm 3 mps 686 mmHg 50%

Tomorrow, 28 January, Thursday

Time Temperature Precipitation Wind Pressure Humidity
00:00 +4°C° 0 mm 3 mps 686 mmHg 48%
01:00 +4°C° 0 mm 3 mps 685 mmHg 47%
02:00 +4°C° 0 mm 3 mps 685 mmHg 47%
03:00 +5°C° 0 mm 4 mps 685 mmHg 47%
04:00 +5°C° 0 mm 3 mps 685 mmHg 49%
05:00 +5°C° 0 mm 3 mps 684 mmHg 51%
06:00 +5°C° 0 mm 3 mps 684 mmHg 53%
07:00 +7°C° 0 mm 3 mps 684 mmHg 58%
08:00 +7°C° 0 mm 3 mps 684 mmHg 63%
09:00 +8°C° 0 mm 3 mps 684 mmHg 68%
10:00 +8°C° 0 mm 3 mps 684 mmHg 65%
11:00 +9°C° 0 mm 2 mps 684 mmHg 62%
12:00 +10°C° 0 mm 2 mps 684 mmHg 59%
13:00 +10°C° 0 mm 2 mps 684 mmHg 59%
14:00 +11°C° 0 mm 1 mps 684 mmHg 60%
15:00 +11°C° 0 mm 1 mps 684 mmHg 60%
16:00 +10°C° 0.1 mm 1 mps 685 mmHg 67%
17:00 +8°C° 0.1 mm 1 mps 685 mmHg 74%
18:00 +7°C° 0.1 mm 1 mps 686 mmHg 80%
19:00 +6°C° 0.1 mm 1 mps 686 mmHg 85%
20:00 +6°C° 0.1 mm 1 mps 686 mmHg 89%
21:00 +5°C° 0.1 mm 1 mps 686 mmHg 93%
22:00 +5°C° 0.1 mm 1 mps 686 mmHg 94%
23:00 +5°C° 0.1 mm 1 mps 686 mmHg 96%

Day after tomorrow, 29 January, Friday

Time Temperature Precipitation Wind Pressure Humidity
00:00 +5°C° 0.1 mm 1 mps 687 mmHg 97%
01:00 +5°C° 1.1 mm 1 mps 687 mmHg 97%
02:00 +5°C° 1.1 mm 1 mps 687 mmHg 97%
03:00 +3°C° 1.1 mm 2 mps 687 mmHg 97%
04:00 +3°C° 0.5 mm 2 mps 687 mmHg 97%
05:00 +3°C° 0.5 mm 2 mps 687 mmHg 97%
06:00 +4°C° 0.5 mm 1 mps 687 mmHg 97%
07:00 +3°C° 0.4 mm 1 mps 687 mmHg 97%
08:00 +3°C° 0.4 mm 1 mps 687 mmHg 96%
09:00 +3°C° 0.4 mm 1 mps 687 mmHg 96%
10:00 +4°C° 0.3 mm 1 mps 687 mmHg 94%
11:00 +4°C° 0.3 mm 1 mps 687 mmHg 93%
12:00 +3°C° 0.3 mm 2 mps 687 mmHg 91%
13:00 +3°C° 0.3 mm 2 mps 687 mmHg 91%
14:00 +3°C° 0.3 mm 2 mps 687 mmHg 91%
15:00 +3°C° 0.3 mm 2 mps 687 mmHg 91%
16:00 +3°C° 0.3 mm 2 mps 687 mmHg 92%
17:00 +3°C° 0.3 mm 1 mps 688 mmHg 93%
18:00 +3°C° 0.3 mm 1 mps 688 mmHg 94%
19:00 +2°C° 0 mm 1 mps 688 mmHg 94%
20:00 +2°C° 0 mm 1 mps 688 mmHg 93%
21:00 +2°C° 0 mm 1 mps 689 mmHg 92%
22:00 +2°C° 0 mm 1 mps 688 mmHg 90%
23:00 +1°C° 0 mm 1 mps 688 mmHg 87%

30 January, Saturday

Time Temperature Precipitation Wind Pressure Humidity
00:00 +1°C° 0 mm 1 mps 688 mmHg 84%
01:00 -1°C° 0 mm 2 mps 688 mmHg 81%
02:00 -1°C° 0 mm 2 mps 688 mmHg 77%
03:00 -1°C° 0 mm 2 mps 687 mmHg 73%
04:00 -1°C° 0 mm 2 mps 687 mmHg 70%
05:00 -1°C° 0 mm 2 mps 687 mmHg 68%
06:00 -1°C° 0 mm 2 mps 686 mmHg 66%
07:00 +1°C° 0 mm 2 mps 687 mmHg 64%
08:00 +2°C° 0 mm 2 mps 687 mmHg 62%
09:00 +3°C° 0 mm 1 mps 687 mmHg 59%
10:00 +5°C° 0 mm 1 mps 687 mmHg 57%
11:00 +7°C° 0 mm 1 mps 686 mmHg 54%
12:00 +8°C° 0 mm 1 mps 686 mmHg 52%
13:00 +8°C° 0 mm 1 mps 686 mmHg 51%
14:00 +9°C° 0 mm 1 mps 685 mmHg 50%
15:00 +9°C° 0 mm 1 mps 685 mmHg 49%
16:00 +7°C° 0 mm 1 mps 685 mmHg 53%
17:00 +5°C° 0 mm 1 mps 685 mmHg 57%
18:00 +3°C° 0 mm 2 mps 685 mmHg 62%
19:00 +2°C° 0 mm 2 mps 685 mmHg 59%
20:00 +2°C° 0 mm 2 mps 685 mmHg 56%
21:00 +1°C° 0 mm 2 mps 684 mmHg 53%
22:00 +2°C° 0 mm 2 mps 684 mmHg 51%
23:00 +2°C° 0 mm 2 mps 684 mmHg 49%

31 January, Sunday

Time Temperature Precipitation Wind Pressure Humidity
00:00 +2°C° 0 mm 2 mps 684 mmHg 47%
01:00 +2°C° 0 mm 2 mps 684 mmHg 46%
02:00 +2°C° 0 mm 2 mps 684 mmHg 46%
03:00 +2°C° 0 mm 2 mps 684 mmHg 46%
04:00 +2°C° 0 mm 2 mps 684 mmHg 47%
05:00 +2°C° 0 mm 2 mps 684 mmHg 47%
06:00 +3°C° 0 mm 2 mps 684 mmHg 48%
07:00 +4°C° 0 mm 1 mps 684 mmHg 50%
08:00 +4°C° 0 mm 1 mps 685 mmHg 52%
09:00 +4°C° 0 mm 0 mps 686 mmHg 54%
10:00 +5°C° 0 mm 1 mps 686 mmHg 56%
11:00 +6°C° 0 mm 1 mps 686 mmHg 59%
12:00 +5°C° 0 mm 2 mps 687 mmHg 61%
13:00 +6°C° 0 mm 1 mps 687 mmHg 67%
14:00 +6°C° 0 mm 1 mps 687 mmHg 72%
15:00 +6°C° 0 mm 1 mps 687 mmHg 78%
16:00 +5°C° 0 mm 1 mps 688 mmHg 82%
17:00 +4°C° 0 mm 1 mps 688 mmHg 86%
18:00 +3°C° 0 mm 1 mps 688 mmHg 89%
19:00 +3°C° 0 mm 1 mps 689 mmHg 86%
20:00 +3°C° 0 mm 1 mps 689 mmHg 82%
21:00 +2°C° 0 mm 2 mps 689 mmHg 79%
22:00 +2°C° 0 mm 2 mps 689 mmHg 76%
23:00 +2°C° 0 mm 2 mps 689 mmHg 73%

1 February, Monday

Time Temperature Precipitation Wind Pressure Humidity
00:00 +2°C° 0 mm 2 mps 689 mmHg 70%
01:00 +2°C° 0 mm 2 mps 689 mmHg 69%
02:00 +2°C° 0 mm 2 mps 689 mmHg 67%
03:00 +2°C° 0 mm 2 mps 689 mmHg 65%
04:00 +2°C° 0 mm 2 mps 689 mmHg 63%
05:00 +3°C° 0 mm 2 mps 689 mmHg 60%
06:00 +3°C° 0 mm 2 mps 689 mmHg 57%
07:00 +4°C° 0 mm 2 mps 689 mmHg 54%
08:00 +4°C° 0 mm 2 mps 689 mmHg 52%
09:00 +5°C° 0 mm 2 mps 690 mmHg 49%
10:00 +7°C° 0 mm 2 mps 690 mmHg 49%
11:00 +9°C° 0 mm 2 mps 690 mmHg 49%
12:00 +12°C° 0 mm 2 mps 690 mmHg 49%
13:00 +12°C° 0 mm 1 mps 690 mmHg 51%
14:00 +12°C° 0 mm 1 mps 690 mmHg 53%
15:00 +12°C° 0 mm 1 mps 690 mmHg 56%
16:00 +11°C° 0 mm 1 mps 690 mmHg 58%
17:00 +9°C° 0 mm 1 mps 690 mmHg 60%
18:00 +7°C° 0 mm 2 mps 690 mmHg 63%
19:00 +7°C° 0 mm 2 mps 691 mmHg 63%
20:00 +6°C° 0 mm 2 mps 691 mmHg 64%
21:00 +6°C° 0 mm 2 mps 691 mmHg 64%
22:00 +6°C° 0 mm 2 mps 691 mmHg 66%
23:00 +6°C° 0 mm 2 mps 691 mmHg 67%
Show more